Location: Recife
(8.0585°S, 34.8848°W)
Time: 10:55:13
(UTC-03:00)

Explorer 7 - Pass Details

Date: 23 April 2026
Orbit: 427 x 536 km, 50.2° (Epoch: 14 May)

Event Time Altitude Azimuth Distance (km) Brightness Sun altitude
Rises 08:21:43 0° 189° (S) 2,461 9.9 41.6°
Reaches altitude 10° 08:24:41 10° 162° (SSE) 1,609 9.2 42.3°
Maximum altitude 08:26:38 14° 130° (SE) 1,402 9.3 42.7°
Drops below altitude 10° 08:28:36 10° 97° (E) 1,638 10.1 43.1°
Sets 08:31:40 0° 71° (ENE) 2,541 11.0 43.8°
